[[{"header":{"parameterUnit":"m.s-1","parameterCategory":1,"la1":30.2991,"la2":30.254,"lo1":-89.0895,"lo2":-89.0444,"dy":0.0017,"dx":0.0017,"nx":28,"ny":28,"refTime":"2023-05-28T21:00:00:Z","depth":0,"parameterNumber":2,"parameterNumberName":"U-component_of_WINDS"},"data":[0,0,0,0,0,0,0,0,0,0,0,0,0,0,0,0,0,0,0,0,0,0,0,0,0,0,0,0,0,0,0,0,0,0,0,0,0,0,0,0,0,0,0,0,0,0,0,0,0,0,0,0,0,0,0,0,0,0,2.099,2.0991,0,2.1042,2.1043,2.1044,2.1004,2.1002,2.1001,2.0999,2.1053,2.1056,2.1059,0,0,0,0,0,0,0,0,0,0,0,0,0,2.0854,2.0856,2.099,2.0991,2.0991,2.1042,2.1043,2.1044,2.1004,2.1002,2.1,2.0998,2.1052,2.1056,2.1059,0,0,0,0,0,0,0,0,0,0,0,0,0,2.091,2.0857,2.099,2.0978,2.0977,2.1042,2.1043,2.1044,2.1005,2.1002,2.1,2.0997,2.1051,2.1055,2.106,2.114,0,0,2.1074,2.1076,0,0,0,0,0,0,0,0,2.0907,2.0915,2.0979,2.0979,2.0978,2.1014,2.1015,2.1076,2.1006,2.0994,2.0999,2.0996,2.1042,2.1047,2.1063,2.1142,2.1145,2.1074,2.1077,2.1079,2.108,0,0,0,0,0,0,0,2.0903,2.0913,2.1011,2.098,2.0979,2.0969,2.0974,2.1026,2.1032,2.0995,2.0992,2.0999,2.1042,2.1059,2.1064,2.1145,2.1074,2.1078,2.1081,2.1083,2.1289,2.1291,0,0,0,0,0,0,2.0901,2.091,2.1009,2.1012,2.0936,2.0974,2.0979,2.1005,2.1032,2.1033,2.1001,2.0997,2.1052,2.1059,2.1066,2.1157,2.1079,2.1083,2.1086,2.1286,2.1289,2.1292,0,0,0,0,0,0,2.0898,2.091,2.1007,2.096,2.0972,2.0979,2.1008,2.1008,2.1024,2.1036,2.1037,2.1018,2.105,2.1059,2.1121,2.1159,2.1085,2.1089,2.1283,2.1287,2.1291,2.1344,0,0,0,0,0,0,2.0894,2.0909,2.094,2.0961,2.0975,2.1062,2.101,2.1011,2.1032,2.1027,2.1052,2.1053,2.1049,2.1114,2.1125,2.1164,2.1093,2.1279,2.1284,2.1289,2.1339,2.1349,2.1358,0,0,0,0,0,2.0889,2.0954,2.0942,2.0954,2.1013,2.1064,2.1072,2.1065,2.1036,2.1066,2.1073,2.1052,2.1154,2.1121,2.1133,2.1174,2.1277,2.1283,2.1289,2.1334,2.1347,2.1358,0,0,0,0,0,0,2.0938,2.0957,2.0943,2.1017,2.1039,2.1057,2.1096,2.108,2.1111,2.1105,2.1096,2.1102,2.1165,2.1176,2.1139,2.125,2.121,2.1219,2.1241,2.1253,2.1263,2.1258,2.1097,0,0,0,0,0,2.0957,2.0997,2.1011,2.1075,2.1086,2.1089,2.1111,2.1104,2.1127,2.1136,2.1148,2.117,2.1206,2.1231,2.1265,2.1341,2.1344,2.1375,2.1384,2.1392,2.1399,2.1436,2.1449,2.1312,2.1312,2.1312,0,0,2.0997,2.1013,2.1038,2.1085,2.1101,2.1141,2.1097,2.1143,2.1172,2.1143,2.12,2.121,2.1234,2.1302,2.1332,2.1313,2.1438,2.14,2.1407,2.1409,2.1444,2.1457,2.1469,2.1316,2.1316,2.1315,0,0,2.109,2.1107,2.116,2.1177,2.1201,2.1202,2.1215,2.1235,2.124,2.1298,2.1276,2.131,2.1374,2.1391,2.1408,2.1505,2.1486,2.1517,2.1567,2.1604,2.1614,2.1624,2.1655,2.1667,2.1524,2.1524,2.1525,0,2.1137,2.1197,2.1189,2.1235,2.1255,2.123,2.1282,2.1298,2.1334,2.1347,2.1325,2.1402,2.1417,2.1487,2.151,2.1526,2.1538,2.1513,2.1614,2.1623,2.1632,2.1661,2.1673,2.1528,2.1527,2.1527,2.1527,0,2.1251,2.1293,2.1333,2.1365,2.139,2.1439,2.1437,2.1463,2.1454,2.1457,2.1514,2.1531,2.1567,2.1583,2.1575,2.1651,2.1637,2.1615,2.1574,2.1648,2.1676,2.1687,2.1533,2.1531,2.153,2.153,0,0,2.1376,2.1402,2.1417,2.143,2.1454,2.1486,2.1533,2.1567,2.1588,2.1613,2.165,2.1704,2.1681,2.1701,2.1695,2.1727,2.1798,2.17,2.17,2.1714,2.1878,2.1893,2.1907,2.1786,2.1788,2.179,2.1875,0,2.1468,2.1549,2.1542,2.1618,2.1655,2.163,2.1671,2.169,2.1693,2.1724,2.1729,2.1765,2.1736,2.1746,2.1777,2.1783,2.183,2.1777,2.1819,2.182,2.1811,2.1922,2.1938,2.2018,2.1886,2.1888,2.189,0,2.1585,2.1612,2.1692,2.1707,2.1722,2.1759,2.1788,2.1819,2.1839,2.1839,2.1859,2.1847,2.1892,2.1852,2.1913,2.1877,2.1894,2.1899,2.1902,2.1903,2.1858,2.1923,2.2043,2.2054,2.1907,2.1906,2.1904,0,2.1664,2.1721,2.1774,2.1787,2.1808,2.1833,2.1843,2.186,2.188,2.1906,2.1918,2.1949,2.1966,2.1989,2.1985,2.1957,2.2046,2.2006,2.2046,2.2046,2.2064,2.2062,2.2185,2.208,2.208,2.2079,2.2079,0,2.1765,2.1814,2.1809,2.1842,2.1895,2.1887,2.1939,2.1946,2.1961,2.1994,2.1976,2.2007,2.2,2.2031,2.2028,2.2077,2.2086,2.2086,2.2084,2.2086,2.2085,2.2095,2.2088,2.2083,2.2082,2.2081,2.2081,0,2.1862,2.1861,2.1917,2.1932,2.1936,2.1974,2.1986,2.2016,2.2018,2.2059,2.2069,2.2071,2.2106,2.2104,2.2144,2.2142,2.2202,2.2195,2.2194,2.2192,2.223,2.2225,2.2361,2.2377,2.2264,2.2265,2.2266,0,2.1925,2.1961,2.1979,2.1999,2.201,2.2043,2.2063,2.2055,2.2076,2.21,2.2127,2.216,2.2185,2.2242,2.2247,2.2277,2.2268,2.2314,2.2273,2.2272,2.2265,2.2262,2.2264,2.2321,2.2323,2.2324,2.2325,0,2.2036,2.2033,2.2062,2.209,2.2113,2.2135,2.2155,2.2173,2.2167,2.2192,2.2226,2.2246,2.2285,2.2317,2.2345,2.2354,2.2338,2.2338,2.2348,2.2349,2.2345,2.2344,2.2213,2.2334,2.2333,2.2332,2.2332,2.2331,2.2115,2.2145,2.2161,2.2193,2.2207,2.2225,2.2253,2.2258,2.2286,2.2317,2.2311,2.2349,2.2366,2.2401,2.2413,2.2442,2.2425,2.2441,2.2444,2.2448,2.245,2.2343,2.2447,2.2447,2.2447,2.2447,2.2447,0,2.2222,2.2231,2.226,2.2287,2.2312,2.2294,2.2315,2.2336,2.237,2.2387,2.2412,2.245,2.248,2.2487,2.2516,2.2537,2.253,2.2545,2.2542,2.2543,2.2465,2.2452,2.255,2.255,2.255,2.255,2.255,2.255,2.228,2.2329,2.2327,2.2382,2.239,2.2427,2.2439,2.2455,2.2468,2.2512,2.2536,2.254,2.2553,2.2582,2.2608,2.2609,2.2619,2.2636,2.2634,2.256,2.255,2.254,2.2527,2.2639,2.2639,2.271,2.271,2.2711]},{"header":{"parameterUnit":"m.s-1","parameterCategory":1,"la1":30.2991,"la2":30.254,"lo1":-89.0895,"lo2":-89.0444,"dy":0.0017,"dx":0.0017,"nx":28,"ny":28,"refTime":"2023-05-28T21:00:00:Z","depth":0,"parameterNumber":3,"parameterNumberName":"V-component_of_WINDS"},"data":[0,0,0,0,0,0,0,0,0,0,0,0,0,0,0,0,0,0,0,0,0,0,0,0,0,0,0,0,0,0,0,0,0,0,0,0,0,0,0,0,0,0,0,0,0,0,0,0,0,0,0,0,0,0,0,0,0,0,1.9066,1.9066,0,1.9099,1.91,1.91,1.9073,1.9072,1.9071,1.907,1.9102,1.9104,1.9106,0,0,0,0,0,0,0,0,0,0,0,0,0,1.8976,1.8978,1.9066,1.9066,1.9067,1.9099,1.91,1.91,1.9073,1.9072,1.9071,1.9069,1.9101,1.9104,1.9106,0,0,0,0,0,0,0,0,0,0,0,0,0,1.9012,1.8978,1.9066,1.9057,1.9057,1.9099,1.91,1.91,1.9074,1.9072,1.907,1.9069,1.9101,1.9104,1.9106,1.9158,0,0,1.9115,1.9116,0,0,0,0,0,0,0,0,1.901,1.9016,1.9058,1.9058,1.9058,1.908,1.908,1.9119,1.9074,1.9067,1.907,1.9068,1.9096,1.9099,1.9109,1.9159,1.9161,1.9115,1.9117,1.9118,1.9119,0,0,0,0,0,0,0,1.9008,1.9014,1.9079,1.9059,1.9058,1.9051,1.9054,1.9087,1.9091,1.9068,1.9066,1.907,1.9096,1.9106,1.911,1.9161,1.9115,1.9118,1.912,1.9121,1.9253,1.9255,0,0,0,0,0,0,1.9007,1.9012,1.9078,1.908,1.9029,1.9054,1.9058,1.9075,1.909,1.9091,1.9072,1.9069,1.9102,1.9106,1.9111,1.917,1.9118,1.9121,1.9123,1.9251,1.9253,1.9255,0,0,0,0,0,0,1.9005,1.9013,1.9077,1.9046,1.9053,1.9057,1.9077,1.9076,1.9087,1.9093,1.9094,1.9082,1.9101,1.9107,1.9146,1.9171,1.9122,1.9125,1.9249,1.9252,1.9254,1.9291,0,0,0,0,0,0,1.9002,1.9012,1.9033,1.9046,1.9055,1.9112,1.9078,1.9078,1.9092,1.9089,1.9103,1.9104,1.91,1.9142,1.9149,1.9174,1.9127,1.9247,1.925,1.9253,1.9288,1.9295,1.9301,0,0,0,0,0,1.8999,1.9042,1.9034,1.9042,1.9081,1.9114,1.9119,1.9114,1.9095,1.9114,1.9118,1.9104,1.9168,1.9146,1.9154,1.918,1.9245,1.9249,1.9253,1.9285,1.9294,1.9301,0,0,0,0,0,0,1.9032,1.9044,1.9035,1.9084,1.9098,1.9109,1.9135,1.9124,1.9143,1.9139,1.9132,1.9136,1.9176,1.9182,1.9158,1.923,1.9203,1.9209,1.9225,1.9233,1.9239,1.9237,1.913,0,0,0,0,0,1.9044,1.9071,1.908,1.9122,1.913,1.9131,1.9145,1.914,1.9154,1.916,1.9167,1.918,1.9203,1.9218,1.924,1.9289,1.929,1.9311,1.9317,1.9323,1.9327,1.9351,1.936,1.9268,1.9268,1.9268,0,0,1.9071,1.9081,1.9098,1.9129,1.9139,1.9165,1.9136,1.9166,1.9185,1.9164,1.9202,1.9207,1.9221,1.9265,1.9284,1.9271,1.9353,1.9328,1.9332,1.9334,1.9356,1.9365,1.9373,1.9271,1.9271,1.927,0,0,1.9133,1.9144,1.9179,1.919,1.9206,1.9206,1.9215,1.9227,1.923,1.9267,1.9252,1.9274,1.9314,1.9324,1.9335,1.9399,1.9385,1.9406,1.944,1.9463,1.9471,1.9477,1.9498,1.9506,1.9411,1.9411,1.9411,0,1.9164,1.9204,1.9199,1.9229,1.9242,1.9225,1.9259,1.927,1.9292,1.93,1.9285,1.9334,1.9343,1.9387,1.9403,1.9413,1.942,1.9404,1.947,1.9477,1.9482,1.9502,1.951,1.9413,1.9413,1.9413,1.9412,0,1.924,1.9268,1.9295,1.9316,1.9332,1.9365,1.9363,1.9379,1.9372,1.9374,1.9411,1.942,1.9442,1.9453,1.9447,1.9496,1.9487,1.9471,1.9444,1.9493,1.9512,1.952,1.9416,1.9415,1.9415,1.9414,0,0,1.9325,1.9341,1.9351,1.936,1.9375,1.9396,1.9427,1.9449,1.9462,1.9477,1.9502,1.9535,1.952,1.9532,1.9527,1.9548,1.9595,1.9529,1.9529,1.954,1.9648,1.9659,1.9668,1.9586,1.9588,1.9589,1.9646,0,1.9386,1.944,1.9435,1.9485,1.951,1.9493,1.9519,1.9531,1.9532,1.9552,1.9554,1.9577,1.9556,1.9563,1.9583,1.9585,1.9616,1.9581,1.9608,1.9609,1.9604,1.9678,1.969,1.9744,1.9654,1.9655,1.9656,0,1.9465,1.9483,1.9536,1.9546,1.9556,1.958,1.9598,1.9618,1.963,1.9629,1.9642,1.9633,1.9662,1.9634,1.9673,1.9649,1.966,1.9662,1.9664,1.9666,1.9635,1.968,1.9761,1.9768,1.9667,1.9667,1.9666,0,1.9519,1.9556,1.9592,1.96,1.9613,1.963,1.9636,1.9646,1.9659,1.9675,1.9683,1.9702,1.9712,1.9726,1.9722,1.9702,1.9761,1.9734,1.976,1.976,1.9773,1.9772,1.9855,1.9782,1.9782,1.9782,1.9781,0,1.9587,1.962,1.9616,1.9638,1.9673,1.9667,1.9702,1.9705,1.9714,1.9736,1.9722,1.9742,1.9735,1.9755,1.9751,1.9783,1.9788,1.9788,1.9786,1.9788,1.9788,1.9794,1.979,1.9784,1.9783,1.9783,1.9782,0,1.9653,1.9652,1.969,1.9699,1.9701,1.9727,1.9734,1.9754,1.9754,1.9781,1.9787,1.9787,1.9809,1.9805,1.983,1.9827,1.9867,1.9861,1.9863,1.9861,1.9887,1.9884,1.9977,1.9987,1.9908,1.9909,1.991,0,1.9697,1.9721,1.9732,1.9745,1.9753,1.9775,1.9787,1.9781,1.9794,1.9809,1.9827,1.9847,1.9864,1.9899,1.9901,1.9919,1.9913,1.9944,1.9916,1.9916,1.9912,1.991,1.9911,1.9949,1.995,1.9951,1.9952,0,1.9773,1.9771,1.979,1.9808,1.9824,1.9838,1.9851,1.9862,1.9857,1.9873,1.9895,1.9907,1.9932,1.9952,1.9969,1.9973,1.9961,1.996,1.9967,1.9969,1.9968,1.9968,1.9877,1.9958,1.9958,1.9957,1.9957,1.9956,1.9828,1.9848,1.9858,1.9879,1.9888,1.99,1.9919,1.9921,1.9939,1.9959,1.9954,1.9978,1.9988,2.0009,2.0016,2.0034,2.0022,2.0033,2.0035,2.0038,2.004,1.9966,2.0037,2.0037,2.0037,2.0037,2.0036,0,1.9902,1.9907,1.9927,1.9945,1.9961,1.9948,1.9961,1.9975,1.9997,2.0007,2.0023,2.0048,2.0067,2.0069,2.0087,2.0101,2.0096,2.0106,2.0104,2.0105,2.005,2.0042,2.011,2.011,2.011,2.011,2.011,2.011,1.9942,1.9975,1.9974,2.001,2.0015,2.0039,2.0047,2.0058,2.0065,2.0093,2.0109,2.0111,2.0117,2.0135,2.0152,2.0152,2.0158,2.017,2.0168,2.0117,2.0109,2.0102,2.0094,2.0172,2.0172,2.0221,2.0222,2.0222]}]]